[[{"header":{"parameterUnit":"m.s-1","parameterCategory":1,"la1":30.2991,"la2":30.254,"lo1":-89.0895,"lo2":-89.0444,"dy":0.0017,"dx":0.0017,"nx":28,"ny":28,"refTime":"2024-03-14T03:00:00:Z","depth":0,"parameterNumber":2,"parameterNumberName":"U-component_of_WINDS"},"data":[0,0,0,0,0,0,0,0,0,0,0,0,0,0,0,0,0,0,0,0,0,0,0,0,0,0,0,0,0,0,0,0,0,0,0,0,0,0,0,0,0,0,0,0,0,0,0,0,0,0,0,0,0,0,0,0,0,0,-1.4204,-1.4204,0,-1.4182,-1.4181,-1.4181,-1.4144,-1.4143,-1.4143,-1.4142,-1.4119,-1.4119,-1.412,0,0,0,0,0,0,0,0,0,0,0,0,0,-1.4217,-1.4217,-1.4204,-1.4204,-1.4204,-1.4182,-1.4181,-1.4181,-1.4144,-1.4143,-1.4142,-1.4142,-1.4119,-1.4119,-1.412,0,0,0,0,0,0,0,0,0,0,0,0,0,-1.4205,-1.4217,-1.4204,-1.4183,-1.4181,-1.4182,-1.4181,-1.4181,-1.4144,-1.4143,-1.4142,-1.4141,-1.4119,-1.4119,-1.412,-1.414,0,0,-1.412,-1.412,0,0,0,0,0,0,0,0,-1.4205,-1.4204,-1.4186,-1.4184,-1.4182,-1.4164,-1.4177,-1.4167,-1.4144,-1.4158,-1.4142,-1.4141,-1.4135,-1.4134,-1.4132,-1.4139,-1.4138,-1.412,-1.412,-1.412,-1.412,0,0,0,0,0,0,0,-1.4206,-1.4205,-1.4195,-1.4186,-1.4183,-1.4174,-1.4172,-1.4175,-1.4153,-1.4157,-1.4154,-1.4152,-1.4134,-1.4132,-1.4131,-1.4138,-1.412,-1.412,-1.412,-1.412,-1.416,-1.4161,0,0,0,0,0,0,-1.421,-1.4206,-1.4196,-1.4195,-1.4191,-1.4175,-1.4172,-1.4171,-1.4153,-1.4149,-1.4153,-1.415,-1.4132,-1.4131,-1.413,-1.4152,-1.412,-1.412,-1.412,-1.4159,-1.4161,-1.4162,0,0,0,0,0,0,-1.4211,-1.421,-1.4197,-1.42,-1.4197,-1.4176,-1.4175,-1.4171,-1.4169,-1.4149,-1.4145,-1.4155,-1.4132,-1.413,-1.4138,-1.4151,-1.412,-1.412,-1.4158,-1.416,-1.4161,-1.4197,0,0,0,0,0,0,-1.4211,-1.421,-1.4217,-1.42,-1.4197,-1.4205,-1.4176,-1.4171,-1.4169,-1.4166,-1.415,-1.4147,-1.4131,-1.4138,-1.4138,-1.415,-1.412,-1.4157,-1.4159,-1.4161,-1.4194,-1.4199,-1.4204,0,0,0,0,0,-1.4212,-1.4229,-1.4218,-1.4217,-1.4206,-1.4205,-1.4204,-1.4185,-1.4171,-1.4178,-1.4165,-1.4147,-1.415,-1.4139,-1.4139,-1.4151,-1.4156,-1.4158,-1.416,-1.4192,-1.4198,-1.4204,0,0,0,0,0,0,-1.4248,-1.4226,-1.4214,-1.4226,-1.4218,-1.4199,-1.4208,-1.4192,-1.4188,-1.4185,-1.4162,-1.4159,-1.4169,-1.4161,-1.415,-1.417,-1.415,-1.4153,-1.4174,-1.418,-1.4185,-1.4186,-1.412,0,0,0,0,0,-1.4258,-1.4259,-1.424,-1.4252,-1.4249,-1.4229,-1.4228,-1.4214,-1.4205,-1.4202,-1.4189,-1.4182,-1.4181,-1.418,-1.4178,-1.4194,-1.4189,-1.4203,-1.4207,-1.4211,-1.4213,-1.422,-1.4225,-1.4169,-1.4169,-1.4169,0,0,-1.4278,-1.4265,-1.4268,-1.4259,-1.4251,-1.4253,-1.4226,-1.423,-1.4231,-1.4202,-1.4208,-1.4199,-1.4189,-1.42,-1.4205,-1.4194,-1.4228,-1.4214,-1.4218,-1.4217,-1.4223,-1.4228,-1.4232,-1.4171,-1.4171,-1.417,0,0,-1.4313,-1.4305,-1.4314,-1.4306,-1.4295,-1.4282,-1.4284,-1.4268,-1.4261,-1.4267,-1.4245,-1.4246,-1.4245,-1.4238,-1.4235,-1.4269,-1.4252,-1.427,-1.4293,-1.43,-1.4304,-1.4308,-1.4319,-1.4323,-1.4272,-1.4272,-1.4272,0,-1.4339,-1.434,-1.432,-1.4324,-1.4321,-1.4296,-1.4304,-1.4299,-1.4287,-1.4286,-1.4274,-1.4272,-1.4263,-1.4272,-1.428,-1.4279,-1.428,-1.427,-1.4305,-1.4309,-1.4312,-1.4322,-1.4326,-1.4274,-1.4274,-1.4273,-1.4273,0,-1.4372,-1.4373,-1.4382,-1.4371,-1.4369,-1.4375,-1.4356,-1.4357,-1.4344,-1.4332,-1.4338,-1.4327,-1.4322,-1.4323,-1.4311,-1.433,-1.4324,-1.431,-1.4288,-1.432,-1.4329,-1.4332,-1.4277,-1.4276,-1.4275,-1.4275,0,0,-1.4428,-1.4407,-1.441,-1.4404,-1.439,-1.4391,-1.4397,-1.4392,-1.4392,-1.4386,-1.4389,-1.4389,-1.4375,-1.4371,-1.4358,-1.4364,-1.439,-1.4349,-1.4348,-1.4355,-1.441,-1.442,-1.4424,-1.438,-1.4381,-1.4381,-1.441,0,-1.446,-1.4467,-1.445,-1.4462,-1.4462,-1.4439,-1.4444,-1.4436,-1.4425,-1.4424,-1.4413,-1.4413,-1.4396,-1.4393,-1.4398,-1.4386,-1.4401,-1.4384,-1.4382,-1.4382,-1.4383,-1.4429,-1.444,-1.4467,-1.4414,-1.4415,-1.4415,0,-1.4497,-1.4492,-1.4504,-1.4488,-1.4488,-1.4493,-1.4486,-1.4486,-1.4477,-1.4469,-1.4465,-1.4449,-1.4453,-1.4435,-1.444,-1.4429,-1.4428,-1.4422,-1.4423,-1.442,-1.4399,-1.4426,-1.4476,-1.448,-1.4421,-1.442,-1.442,0,-1.4535,-1.4532,-1.4538,-1.4534,-1.4517,-1.452,-1.4514,-1.4503,-1.4501,-1.4496,-1.4494,-1.449,-1.4487,-1.4485,-1.4468,-1.4456,-1.4475,-1.4456,-1.4468,-1.4468,-1.4471,-1.4471,-1.452,-1.4474,-1.4474,-1.4474,-1.4474,0,-1.4571,-1.4579,-1.4554,-1.4558,-1.4566,-1.4546,-1.4555,-1.4546,-1.4537,-1.4538,-1.4519,-1.4521,-1.45,-1.4499,-1.4487,-1.4493,-1.4492,-1.4485,-1.4481,-1.4486,-1.4486,-1.4483,-1.448,-1.4475,-1.4475,-1.4474,-1.4474,0,-1.4614,-1.4598,-1.4603,-1.4587,-1.4583,-1.4589,-1.4575,-1.4578,-1.4567,-1.4569,-1.4568,-1.4551,-1.4549,-1.4533,-1.4528,-1.452,-1.453,-1.4524,-1.4533,-1.453,-1.4543,-1.4541,-1.4589,-1.4594,-1.4547,-1.4548,-1.4548,0,-1.4637,-1.4642,-1.4626,-1.4625,-1.4619,-1.4619,-1.4617,-1.4598,-1.4597,-1.4586,-1.459,-1.4587,-1.4583,-1.4583,-1.4569,-1.4566,-1.4558,-1.4575,-1.4557,-1.4561,-1.4556,-1.4555,-1.4555,-1.4578,-1.4579,-1.4579,-1.458,0,-1.4678,-1.467,-1.4667,-1.4662,-1.466,-1.4655,-1.4649,-1.4649,-1.4629,-1.4628,-1.4626,-1.4624,-1.4619,-1.4616,-1.461,-1.4603,-1.4588,-1.4586,-1.4588,-1.4592,-1.4596,-1.4592,-1.4541,-1.4584,-1.4584,-1.4583,-1.4583,-1.4583,-1.4711,-1.4714,-1.4703,-1.47,-1.4694,-1.4689,-1.469,-1.4679,-1.4677,-1.4671,-1.4661,-1.466,-1.4651,-1.4641,-1.4636,-1.4635,-1.4626,-1.463,-1.4631,-1.4631,-1.4633,-1.4598,-1.4634,-1.4634,-1.4634,-1.4634,-1.4634,0,-1.475,-1.4742,-1.474,-1.4731,-1.473,-1.4716,-1.4709,-1.4708,-1.4707,-1.47,-1.4697,-1.4695,-1.4692,-1.4679,-1.4674,-1.4676,-1.4669,-1.4676,-1.4674,-1.4673,-1.4642,-1.464,-1.4681,-1.4681,-1.4681,-1.4681,-1.4681,-1.4681,-1.477,-1.4774,-1.4765,-1.4766,-1.4758,-1.4757,-1.4754,-1.4749,-1.4742,-1.4741,-1.4738,-1.473,-1.472,-1.4715,-1.4711,-1.4708,-1.4706,-1.4715,-1.4709,-1.468,-1.4675,-1.4671,-1.4668,-1.4715,-1.4715,-1.4739,-1.4739,-1.4739]},{"header":{"parameterUnit":"m.s-1","parameterCategory":1,"la1":30.2991,"la2":30.254,"lo1":-89.0895,"lo2":-89.0444,"dy":0.0017,"dx":0.0017,"nx":28,"ny":28,"refTime":"2024-03-14T03:00:00:Z","depth":0,"parameterNumber":3,"parameterNumberName":"V-component_of_WINDS"},"data":[0,0,0,0,0,0,0,0,0,0,0,0,0,0,0,0,0,0,0,0,0,0,0,0,0,0,0,0,0,0,0,0,0,0,0,0,0,0,0,0,0,0,0,0,0,0,0,0,0,0,0,0,0,0,0,0,0,0,1.4689,1.469,0,1.4763,1.4764,1.4765,1.482,1.482,1.482,1.4821,1.4896,1.4897,1.4899,0,0,0,0,0,0,0,0,0,0,0,0,0,1.4595,1.4597,1.4689,1.469,1.4691,1.4763,1.4764,1.4765,1.4819,1.482,1.4821,1.4821,1.4895,1.4897,1.4899,0,0,0,0,0,0,0,0,0,0,0,0,0,1.4649,1.4597,1.4689,1.4727,1.4731,1.4763,1.4764,1.4766,1.4819,1.482,1.4821,1.4821,1.4895,1.4897,1.4899,1.49,0,0,1.4907,1.4908,0,0,0,0,0,0,0,0,1.4646,1.4653,1.472,1.4724,1.4729,1.4783,1.4759,1.481,1.4819,1.4786,1.4821,1.4822,1.4858,1.4863,1.4875,1.4903,1.4906,1.4907,1.4908,1.4909,1.491,0,0,0,0,0,0,0,1.4642,1.465,1.4719,1.4721,1.4727,1.474,1.4749,1.4769,1.4817,1.4789,1.4793,1.4801,1.486,1.4873,1.4878,1.4907,1.4907,1.4909,1.491,1.4911,1.4941,1.494,0,0,0,0,0,0,1.4633,1.4646,1.4716,1.4721,1.4689,1.4741,1.4751,1.4765,1.4817,1.4825,1.48,1.4803,1.4869,1.4875,1.488,1.4886,1.4909,1.4911,1.4913,1.4942,1.4941,1.494,0,0,0,0,0,0,1.4631,1.4639,1.4713,1.4685,1.4695,1.4742,1.4758,1.4766,1.4779,1.4826,1.4834,1.4805,1.487,1.4877,1.4895,1.4889,1.4912,1.4915,1.4942,1.4941,1.494,1.4895,0,0,0,0,0,0,1.4628,1.4637,1.4638,1.4684,1.4697,1.4726,1.4757,1.4767,1.4783,1.4788,1.4832,1.484,1.4871,1.4891,1.4897,1.4893,1.4916,1.4943,1.4942,1.4941,1.4897,1.4892,1.4888,0,0,0,0,0,1.4624,1.4621,1.4638,1.4646,1.4698,1.4726,1.4733,1.4769,1.4782,1.4783,1.4813,1.4839,1.4888,1.4893,1.49,1.4896,1.4944,1.4942,1.4941,1.4899,1.4893,1.4889,0,0,0,0,0,0,1.4572,1.4628,1.4647,1.4659,1.4687,1.4735,1.4737,1.4761,1.4786,1.4789,1.4832,1.4842,1.4855,1.4877,1.4881,1.49,1.4919,1.4919,1.4885,1.488,1.4876,1.4871,1.4918,0,0,0,0,0,1.4562,1.458,1.4628,1.4634,1.4648,1.469,1.4703,1.4728,1.4759,1.4771,1.4803,1.4832,1.4854,1.4868,1.4891,1.49,1.4911,1.4901,1.4897,1.4893,1.4893,1.4901,1.4897,1.4936,1.4936,1.4936,0,0,1.4542,1.4575,1.4583,1.4625,1.465,1.4668,1.4699,1.4717,1.4731,1.4774,1.4793,1.4817,1.4853,1.4866,1.4874,1.4885,1.4885,1.4891,1.4888,1.489,1.4899,1.4895,1.4892,1.4935,1.4935,1.4935,0,0,1.4514,1.454,1.4549,1.4574,1.4611,1.464,1.4642,1.4686,1.4704,1.4724,1.4757,1.4774,1.4812,1.4836,1.4853,1.4836,1.486,1.4842,1.482,1.4827,1.4824,1.4822,1.4817,1.4814,1.4841,1.4841,1.4841,0,1.4484,1.4512,1.455,1.4566,1.4584,1.4625,1.4635,1.4656,1.4699,1.4711,1.4723,1.4772,1.4798,1.4819,1.4815,1.4827,1.4831,1.4837,1.4821,1.4819,1.4818,1.4814,1.4811,1.4839,1.4839,1.4839,1.484,0,1.4474,1.4493,1.4496,1.4537,1.4555,1.4568,1.4608,1.4622,1.4646,1.4673,1.4693,1.4727,1.4758,1.4765,1.4787,1.4789,1.4795,1.4813,1.4834,1.4811,1.4808,1.4807,1.4836,1.4836,1.4837,1.4838,0,0,1.4415,1.4479,1.4479,1.4499,1.4544,1.456,1.4574,1.4606,1.4617,1.4645,1.466,1.4691,1.4709,1.4728,1.4754,1.476,1.4746,1.4779,1.478,1.4773,1.4752,1.4739,1.4736,1.4763,1.4762,1.4762,1.4749,0,1.4396,1.4425,1.446,1.4477,1.4496,1.4536,1.4549,1.4578,1.4604,1.4624,1.4652,1.4675,1.4696,1.4708,1.4716,1.4746,1.4743,1.4748,1.4777,1.4777,1.4768,1.4734,1.472,1.4706,1.4748,1.4748,1.4748,0,1.4376,1.4404,1.4423,1.4468,1.4477,1.4488,1.4521,1.4539,1.4573,1.4591,1.4614,1.4642,1.466,1.4678,1.4704,1.4707,1.4721,1.4737,1.4738,1.4743,1.4762,1.4739,1.4702,1.4701,1.4746,1.4746,1.4746,0,1.4334,1.4375,1.4393,1.4408,1.446,1.4468,1.449,1.4525,1.4541,1.4569,1.4581,1.461,1.4627,1.4649,1.4685,1.4694,1.4707,1.4728,1.4724,1.4723,1.4726,1.4725,1.4692,1.4733,1.4733,1.4733,1.4733,0,1.4309,1.4319,1.4374,1.4385,1.4398,1.4439,1.4451,1.4477,1.4508,1.4524,1.456,1.4575,1.462,1.4641,1.4669,1.4687,1.4694,1.471,1.4717,1.4707,1.4706,1.4718,1.472,1.4732,1.4732,1.4732,1.4732,0,1.4263,1.43,1.4322,1.437,1.4383,1.4391,1.4432,1.4444,1.4472,1.4493,1.45,1.4545,1.4571,1.4608,1.4645,1.4664,1.4679,1.469,1.4668,1.4672,1.4667,1.4667,1.4641,1.464,1.468,1.4679,1.4679,0,1.4245,1.4255,1.4304,1.4318,1.4339,1.4361,1.4379,1.4419,1.4436,1.4477,1.4484,1.4513,1.4539,1.4579,1.4614,1.4643,1.4656,1.4645,1.4661,1.4651,1.4658,1.4657,1.4659,1.4642,1.4641,1.464,1.464,0,1.421,1.4229,1.4253,1.4284,1.4305,1.4331,1.4359,1.4368,1.4415,1.4432,1.446,1.448,1.4518,1.4547,1.4581,1.4604,1.463,1.4635,1.4636,1.4626,1.4613,1.4622,1.4659,1.4635,1.4636,1.4636,1.4636,1.4637,1.4179,1.419,1.4227,1.4253,1.4279,1.4304,1.4319,1.4349,1.4373,1.4408,1.443,1.4457,1.4492,1.4541,1.4562,1.4584,1.4595,1.4596,1.4596,1.4596,1.4593,1.4609,1.459,1.459,1.4591,1.4591,1.4591,0,1.4147,1.4173,1.4197,1.4236,1.4257,1.4279,1.4312,1.4328,1.4351,1.4382,1.4407,1.4439,1.4467,1.4505,1.4536,1.4546,1.4559,1.4553,1.4553,1.4559,1.4581,1.4578,1.4542,1.4542,1.4542,1.4542,1.4542,1.4542,1.4133,1.4153,1.4176,1.4209,1.4235,1.4262,1.4278,1.4303,1.4328,1.4362,1.4386,1.4411,1.4445,1.4479,1.4506,1.4517,1.4527,1.4518,1.4532,1.4552,1.4557,1.4561,1.4558,1.4519,1.4519,1.4508,1.4508,1.4507]}]]